User: anonymous   Login
Location: Unspecified
(0.0000°N, 0.0000°E)
Time: 02:19:12
(UTC+00:00)
Language:

RAX-2 - Orbit

View from above orbital plane
View from above orbital plane
View from above satellite
View from above satellite

Ground track
Ground track

The orbit data is extracted from the following two-line orbital elements,

1 37853U 11061D   16146.93686680 +.00002247 +00000-0 +13715-3 0  9994
2 37853 101.7192 173.2482 0182623 148.8579 212.3607 14.99611396248082
Epoch (UTC): 25 May 2016 22:29:05
Eccentricity: 0.0182623
inclination: 101.7192°
perigee height: 441 km
apogee height: 695 km
right ascension of ascending node: 173.2482°
argument of perigee: 148.8579°
revolutions per day: 14.99611396
mean anomaly at epoch: 212.3607°
orbit number at epoch: 24808

The dashed part of the orbit path shows where the satellite is in the earth's shadow,  

DLR